Miscellaneous Local Product
Issued by NWS North Platte, NE

Home | Current Version | Previous Version | Graphics & Text | Print | Product List | Glossary On
Versions: 1 2 3 4 5 6 7 8 9 10 11 12 13 14 15 16 17 18 19 20 21 22 23 24 25 26 27 28 29 30 31 32 33 34 35 36 37 38 39 40 41 42 43 44 45 46 47 48 49 50
000
AXUS43 KLBF 270810
MISLBF


WESTERN AND NORTH CENTRAL NEBRASKA HOURLY WEATHER ROUNDUP
NATIONAL WEATHER SERVICE NORTH PLATTE NE
300 AM CDT WED MAY 27 2015

***STATIONS NOT REPORTING VARIABLES SUCH AS SKY/WEATHER OR
PRESSURE ARE PROVIDED BY THE NEBRASKA DEPARTMENT OF
ROADS...RAWS...AND APRS NETWORKS...AND ARE NOT UNDER
NATIONAL WEATHER SERVICE QUALITY CONTROL***

...OBSERVATIONS IN AND NEAR THE EASTERN PANHANDLE OF NEBRASKA...

CITY           SKY/WX    TMP DP  RH WIND       PRES   REMARKS
PINE RIDGE     MOCLDY    54  46  74 W3        30.00S
CHADRON        CLOUDY    57  52  83 SW8       29.99F
ALLIANCE       CLOUDY    53  49  86 S7        30.04R
SIDNEY         CLOUDY    52  49  89 S9        30.06S
WHITECLAY        N/A     51  45  80 E9          N/A
BIG SPRINGS      N/A     56  51  82 S12         N/A
$$

...OBSERVATIONS IN NORTH CENTRAL NEBRASKA...

CITY           SKY/WX    TMP DP  RH WIND       PRES   REMARKS
VALENTINE      CLEAR     48  45  89 SW6       30.02R
THEDFORD       PTCLDY    49  46  90 W5        30.05R
AINSWORTH      CLEAR     53  48  81 SW5       30.02R
O`NEILL        CLEAR     53  50  90 SW5       29.99R
ORD            CLEAR     52  47  83 NW3       30.01R
BROKEN BOW     PTCLDY    52  47  83 CALM      30.03R
BROWNLEE         N/A     59  44  56 SW5         N/A
VALENTINE NWR    N/A     53  46  76 SW5         N/A
SPRINGVIEW       N/A     49  47  95 CALM        N/A
HALSEY           N/A     54  46  73 CALM        N/A
BREWSTER         N/A     52  47  83 CALM        N/A
ROSE             N/A     52  49  90 S6          N/A
NEWPORT          N/A     48  48 100 W6          N/A
SARGENT          N/A     50  47  90 CALM        N/A
COMSTOCK         N/A     56  51  85 W8          N/A
EWING            N/A     53  50  89 SW3         N/A
$$

...OBSERVATIONS IN SOUTHWEST NEBRASKA AND FAR NORTHEAST COLORADO...

CITY           SKY/WX    TMP DP  RH WIND       PRES   REMARKS
WRAY           CLOUDY    56  51  82 SE5       30.07R
HOLYOKE        FAIR      55  52  88 S7        30.06S
IMPERIAL       PTCLDY    52  48  86 E5        30.06F
OGALLALA       CLOUDY    56  49  79 CALM      30.05F
NORTH PLATTE   MOCLDY    49  46  90 CALM      30.06R
MCCOOK         PTCLDY    54  47  77 S5        30.05S
LEXINGTON      PTCLDY    49  46  92 CALM      30.04S
PAXTON           N/A     54  49  85 S6          N/A
GOTHENBURG       N/A     53  48  84 CALM        N/A
CALLAWAY         N/A     52  48  87 SE3         N/A
$$

...NORTH PLATTE AREA...

CITY           SKY/WX    TMP DP  RH WIND       PRES   REMARKS
AIRPORT        MOCLDY    49  46  90 CALM      30.06R
DOWNTOWN         N/A     53  47  81 CALM        N/A
$$

...SOME WEATHER OBSERVATIONS FROM AROUND THE REGION...

CITY           SKY/WX    TMP DP  RH WIND       PRES   REMARKS
DENVER         MOCLDY    52  45  77 S13       30.06F
LARAMIE        CLOUDY    47  43  86 SW3       30.12F
CHEYENNE       CLOUDY    49  45  86 W6        30.08F
SCOTTSBLUFF    CLOUDY    56  53  90 E7        30.03F
RAPID CITY     PTCLDY    52  48  86 SE6       29.97F
PIERRE         CLEAR     56  48  74 W7        29.93F
WINNER         FAIR      58  47  66 SW7       29.97S
SIOUX FALLS    CLEAR     52  50  93 W3        29.91R
OMAHA          CLEAR     56  53  90 CALM      29.94S
GRAND ISLAND   CLEAR     53  47  79 W8        30.02R
KANSAS CITY    CLEAR     61  55  81 W5        29.97R
WICHITA        CLEAR     63  60  90 N6        30.00R
HAYS           CLEAR     54  46  76 CALM      30.04S
LIBERAL        CLOUDY    63  54  72 SE6       30.04S
GOODLAND       CLOUDY    53  50  89 S8        30.08R
$$



USA.gov is the U.S. government's official web portal to all federal, state and local government web resources and services.